Location: Caltech
(34.1382°N, 118.1253°W)
Time: 17:27:49
(UTC-07:00)

Iridium 49 - Visible Passes

Search period start: 28 June 2017 00:00
Search period end: 08 July 2017 00:00
Orbit: 776 x 779 km, 86.4° (Epoch: 28 June)

Date Brightness Start Highest point End Pass type
(mag) Time Alt. Az. Time Alt. Az. Time Alt. Az.
28 Jun 6.1 22:59:10 62° ENE 22:59:10 62° ENE 23:04:02 10° N visible
29 Jun 8.5 00:39:37 11° W 00:40:00 12° WNW 00:41:46 10° NW visible
29 Jun 6.9 22:25:33 32° E 22:25:33 32° E 22:30:05 10° NNE visible
30 Jun 7.8 00:06:00 23° W 00:06:11 23° W 00:10:16 10° NNW visible
30 Jun 7.7 21:51:54 17° E 21:52:13 17° E 21:55:29 10° NE visible
30 Jun 6.8 23:32:22 43° W 23:32:29 43° W 23:37:28 10° NNW visible
01 Jul 5.9 22:58:42 82° SSW 22:58:56 86° W 23:04:10 10° N visible
02 Jul 6.3 22:25:03 47° ESE 22:25:29 48° E 22:30:29 10° NNE visible
03 Jul 8.3 00:05:30 15° W 00:06:26 15° WNW 00:09:27 10° NW visible
03 Jul 7.2 21:51:22 24° E 21:52:09 25° E 21:56:20 10° NNE visible
03 Jul 7.4 23:31:49 28° W 23:32:40 29° W 23:37:12 10° NNW visible
04 Jul 7.9 21:17:40 12° E 21:18:55 13° E 21:21:11 10° NE visible
04 Jul 6.4 22:58:08 50° SW 22:59:01 57° W 23:04:10 10° N visible
05 Jul 5.9 22:24:25 55° SSE 22:25:31 74° E 22:30:43 10° N visible
06 Jul 6.7 21:50:41 31° ESE 21:52:06 37° E 21:56:52 10° NNE visible
06 Jul 8.0 23:31:08 17° WSW 23:32:53 20° W 23:36:40 10° NNW visible
07 Jul 7.5 21:16:57 16° ESE 21:18:49 19° E 21:22:27 10° NE visible
07 Jul 7.2 22:57:23 29° SW 22:59:10 38° W 23:04:01 10° NNW visible
